Home   Weather   Galveston   Past weeks

Flag for USA Past Weather in Galveston, Texas, USA — Yesterday and Last 2 Weeks

Now
85 °F

Passing clouds.


Feels Like: 88 °F
Forecast: 75 / 85 °F
Wind: 9 mph from Northeast

Location: Scholes Field

Current Time: Sep 28, 2016 at 3:31:12 PM

Latest Report: Sep 28, 2016 at 2:52 PM


Visibility: 10 mi

Pressure: 30.02 "Hg

Humidity: 57%

Dew Point: 68 °F

Location of GalvestonLocation

Past Weather in Galveston — Graph

°F

Galveston Temperature Yesterday

Maximum temperature yesterday: 84 °F (at 4:52 PM)
Minimum temperature yesterday: 75 °F (at 6:52 AM)
Average temperature yesterday: 79 °F

High & Low Weather Summary for the Past Weeks

 TemperatureHumidityPressure
High92 °F (Sep 18, 12:52 PM)100% (Sep 18, 5:52 AM)30.08 "Hg (Sep 18, 5:52 AM)
Low75 °F (Sep 27, 6:52 AM)50% (Sep 21, 2:52 PM)29.86 "Hg (Sep 16, 5:52 PM)
Average83 °F80%29.98 "Hg
* Reported Sep 13 1:52 PM — Sep 28 1:52 PM, Galveston, Weather by CustomWeather, © 2016

Note: Actual official high and low records may vary slightly from our data, if they occured in-between our weather recording intervals... More about our weather records

Advertising

Galveston Weather History for the Previous 24 Hours

Scroll right to see more
 ConditionsComfort  
Time TempWeatherWind HumidityBarometerVisibility
1:52 PM
Wed, Sep 28
84 °FPassing clouds.8 mph57%30.03 "Hg10 mi
12:52 PM84 °FSunny.8 mph59%30.06 "Hg10 mi
11:52 AM83 °FSunny.8 mph59%30.07 "Hg10 mi
10:52 AM82 °FSunny.10 mph63%30.07 "Hg10 mi
9:52 AM81 °FSunny.10 mph60%30.05 "Hg10 mi
8:52 AM78 °FSunny.8 mph71%30.03 "Hg10 mi
7:52 AM75 °FSunny.9 mph79%30.02 "Hg10 mi
6:52 AM75 °FClear.8 mph82%30.00 "Hg10 mi
5:52 AM75 °FClear.8 mph82%29.98 "Hg10 mi
4:52 AM75 °FClear.7 mph79%29.98 "Hg10 mi
3:52 AM76 °FClear.8 mph80%29.98 "Hg10 mi
2:52 AM77 °FClear.13 mph77%29.98 "Hg10 mi
1:52 AM78 °FClear.10 mph74%29.98 "Hg10 mi
12:52 AM78 °FClear.10 mph79%29.98 "Hg10 mi
11:52 PM
Tue, Sep 27
78 °FClear.9 mph82%29.99 "Hg10 mi
10:52 PM79 °FClear.10 mph79%29.99 "Hg10 mi
9:52 PM80 °FPassing clouds.10 mph76%29.99 "Hg10 mi
8:52 PM81 °FPartly cloudy.14 mph77%29.99 "Hg10 mi
7:52 PM81 °FPassing clouds.6 mph77%29.97 "Hg10 mi
6:52 PM82 °FSunny.8 mph72%29.95 "Hg10 mi
5:52 PM83 °FPassing clouds.10 mph68%29.95 "Hg10 mi
4:52 PM84 °FPassing clouds.9 mph67%29.95 "Hg10 mi
3:52 PM82 °FPassing clouds.7 mph65%29.96 "Hg10 mi
Weather by CustomWeather, © 2016

See weather overviewHow to use our weather pages